Погода в Арахлее

Россия / Забайкальский край     52°09′45″N   112°50′11″E
темп.,
°C
ветер,
м/с
пор.,
м/с
влажн.,
%
обл.,
%
осадки,
мм/ч
давл.,
гПа
погр.,
м
14 июня, пн
пн1400:00+10зсз2695100 0.0 1005130
03:00+10зсз3985100 0.0 1005252
06:00+8зсз2875100 0.0 1006216
09:00+13зсз4750100 0.0 1005697
12:00+19з57341 0.0 10031677
15:00+20з682857 0.0 10012198
18:00+19зсз5731100 0.0 10012265
21:00+14ссз3849100 0.0 1002413
15 июня, вт
вт1500:00+9зсз2262100 0.0 100542
03:00+9юз2666100 0.0 1005144
06:00+7зсз29745 0.0 1006218
09:00+12зсз4652100 0.0 1005628
12:00+16сз3539100 0.0 10041552
15:00+20сз4527100 0.0 10032854
18:00+19зсз653396 0.0 10022308
21:00+14зсз4951100 0.0 1004497
16 июня, ср
ср1600:00+10зсз41062100 0.0 1006351
03:00+7сз3970100 0.0 1006292
06:00+5зсз397771 0.0 1009304
09:00+9сз4659100 0.1 1007488
12:00+14зсз4450100 0.1 10051008
15:00+16сз5550100 0.2 10041565
18:00+15ссз6754100 0.3 10031360
21:00+10с4988100 0.8 1005475
17 июня, чт
чт1700:00+8сз51196100 1.8 1004395
03:00+7сз51098100 2.6 1004333
06:00+6сз41098100 0.1 1004313
09:00+11ссз61281100 0.1 10021025
12:00+14ссз61365100 0.6 10001953
15:00+17с61441100 0.6 9972392
18:00+17ссв51442100 0.0 9972510
21:00+15с81439100 0.0 9991742
18 июня, пт
пт1800:00+13с61446100 0.0 9991337
03:00+11ссз61449100 0.0 999881
06:00+9сз51363100 0.0 999758
09:00+13ссз61250100 0.0 9971237
12:00+17с61140100 0.0 9962170
15:00+17с61243100 0.0 9961875
18:00+17ссв41145100 0.0 9961939
21:00+12св41068100 0.0 998568